Flag for Poland Weather past 2 weeks in Gdańsk, Poland

Now
52 °F

Clear.


Feels Like: 51 °F
Forecast: 55 / 67 °F
Wind: 3 mph from West

Location: Gdansk-Rebiechowo

Current Time: Aug 27, 2014 at 11:45:42 PM

Latest Report: Aug 27, 2014 at 11:00 PM


Visibility: 10 mi

Pressure: 29.89 "Hg

Humidity: 88%

Dew point: 48 °F

Location of GdańskLocation

Historic Weather in Gdańsk — Graph

°F

Gdańsk temperature yesterday

Maximum temperature yesterday: 61 °F (at 11:30 AM)
Minimum temperature yesterday: 46 °F (at 2:30 AM)
Average temperature yesterday: 54 °F

Past Weeks' High & Low Weather Summary

 TemperatureHumidityPressure
High77 °F (Aug 13, 4:30 PM)100% (Aug 14, 6:00 AM)29.98 "Hg (Aug 14, 6:00 AM)
Low43 °F (Aug 24, 6:30 AM)36% (Aug 13, 12:00 PM)29.50 "Hg (Aug 14, 6:30 AM)
Average58 °F72%29.79 "Hg
* Reported Aug 12 10:00 PM — Aug 27 10:30 PM, Gdańsk, Weather by CustomWeather, © 2014

Note: Actual official high and low records may vary slightly from our data, if they occured in-between our weather recording intervals... More about our weather records

Advertising

Gdańsk weather history for previous 24 hours

 ConditionsComfort  
Time TempWeatherWind HumidityBarometerVisibility
10:30 PM
Aug 27
52 °FClear.2 mph88%29.89 "Hg10 mi
10:00 PM54 °FClear.3 mph82%29.89 "Hg10 mi
9:30 PM54 °FClear.5 mph82%29.89 "Hg10 mi
9:00 PM55 °FClear.6 mph77%29.89 "Hg10 mi
8:00 PM57 °FSunny.6 mph72%29.86 "Hg10 mi
7:30 PM59 °FSunny.7 mph68%29.86 "Hg10 mi
7:00 PM61 °FSunny.14 mph63%29.86 "Hg10 mi
6:30 PM63 °FPassing clouds.14 mph56%29.86 "HgN/A
6:00 PM64 °FPassing clouds.15 mph56%29.83 "HgN/A
5:00 PM64 °FPassing clouds.17 mph56%29.83 "HgN/A
4:30 PM64 °FPassing clouds.20 mph52%29.83 "HgN/A
4:00 PM66 °FPassing clouds.17 mph49%29.80 "HgN/A
3:30 PM66 °FPassing clouds.22 mph49%29.80 "HgN/A
3:00 PM66 °FPassing clouds.20 mph49%29.80 "HgN/A
2:30 PM66 °FScattered clouds.22 mph52%29.80 "HgN/A
2:00 PM66 °FScattered clouds.21 mph46%29.80 "HgN/A
1:30 PM66 °FScattered clouds.18 mph49%29.80 "HgN/A
1:00 PM64 °FScattered clouds.20 mph60%29.80 "HgN/A
12:30 PM64 °FScattered clouds.17 mph60%29.80 "HgN/A
12:00 PM64 °FScattered clouds.17 mph60%29.80 "HgN/A
11:30 AM64 °FScattered clouds.16 mph64%29.77 "HgN/A
11:00 AM63 °FScattered clouds.17 mph68%29.77 "HgN/A
10:30 AM63 °FScattered clouds.21 mph68%29.77 "HgN/A
10:00 AM61 °FPassing clouds.20 mph72%29.77 "HgN/A
9:30 AM59 °FPassing clouds.16 mph82%29.74 "HgN/A
9:00 AM57 °FPassing clouds.15 mph82%29.74 "HgN/A
8:30 AM55 °FScattered clouds.14 mph88%29.74 "HgN/A
8:00 AM54 °FScattered clouds.9 mph88%29.74 "HgN/A
7:30 AM52 °FSprinkles. Scattered clouds.9 mph94%29.74 "HgN/A
7:00 AM52 °FSprinkles. Partly sunny.7 mph94%29.74 "HgN/A
6:30 AM50 °FSprinkles. Passing clouds.7 mph94%29.71 "HgN/A
6:00 AM50 °FPassing clouds.5 mph94%29.74 "HgN/A
5:30 AM48 °FPassing clouds.6 mph100%29.74 "HgN/A
5:00 AM48 °FPassing clouds.7 mph100%29.71 "HgN/A
4:30 AM48 °FPassing clouds.6 mph94%29.74 "HgN/A
4:00 AM48 °FPassing clouds.5 mph94%29.74 "HgN/A
3:30 AM48 °FPassing clouds.5 mph94%29.74 "HgN/A
3:00 AM48 °FClear.6 mph94%29.74 "Hg10 mi
2:00 AM48 °FClear.5 mph94%29.71 "Hg10 mi
1:30 AM48 °FClear.5 mph94%29.71 "Hg10 mi
1:00 AM48 °FPassing clouds.3 mph87%29.71 "HgN/A
12:30 AM48 °FClear.5 mph94%29.71 "Hg10 mi
12:00 AM48 °FClear.3 mph87%29.71 "Hg10 mi
11:30 PM
Aug 26
50 °FClear.5 mph88%29.71 "Hg10 mi
11:00 PM50 °FClear.3 mph88%29.74 "Hg10 mi
Weather by CustomWeather, © 2014

See weather overviewHow to use our weather pages